130 serials | facebook hacker v.2.8.0 registration key

Date Name Success Rate
2012-12-12 11:29:11 Facebook Hacker 72%
2009-10-22 23:48:49 Microsoft Registration Hacker - 39%
2011-09-08 11:31:51 Microsoft Registration Hacker 0%
2011-09-08 11:31:51 Microsoft Registration Hacker - 0%
2011-09-08 11:31:51 Microsoft Registration Hacker MSREGHACK 80%
2011-09-08 10:53:39 Facebook Blaster Pro 6.0.6 75%
2011-09-08 10:53:39 Facebook Blaster Pro 7.0.7 75%
2011-09-08 10:53:39 Facebook Blaster Pro 7.1.1 89%
2011-09-08 10:53:39 Facebook Blaster Pro 7.1.3 23%
2011-09-08 10:53:39 Facebook Blaster Pro 7.1.4 81%
2012-12-12 00:49:49 All facebook 1 pass 97%
2012-12-12 11:29:13 Facebook Hacking v16.96 85%
2012-12-12 11:29:17 Facebook recovery 0%
2012-12-13 03:35:32 Pro Facebook Hack v 1.5 59%
2012-12-13 03:35:35 Pro facebook hack v1.5 73%
2012-12-11 22:23:43 007 Facebook Hack v1.0 Original 75%
2012-12-12 11:29:09 FaceBook Friend Bomber 100%
2012-12-12 11:29:15 Facebook Password recovery master 50%
2012-12-12 07:44:33 Digital Media Group Facebook Blaster Pro v5.1.3 68%
2012-12-12 07:44:35 Digital Media Group Facebook Blaster Pro v6.0.6 0%
2012-12-12 07:44:37 Digital Media Group Facebook Blaster Pro v7.1.3 0%
2011-09-08 10:42:09 DAS Registration 1.5.2 69%
2011-09-08 10:42:09 DAS Registration For CW5 0%
2011-09-08 10:42:09 DAS Registration v1.5.2 0%
2009-10-17 06:27:02 Lazarus Registration DLL V1.0 59%
2009-10-22 23:48:48 MemoriesonTV Registration 0%
2009-10-22 23:49:42 Registration Wizard 40%
2011-09-08 10:06:47 AnetHelpTool v4.02 Registration 60%
2011-09-08 10:22:13 ByeLines Registration 60%
2011-09-08 10:57:42 Ftgate Registration 63%
2011-09-08 11:15:16 Infodex v2.10 Registration 0%
2011-09-08 11:25:08 Lazarus Registration DLL v1.0 0%
2011-09-08 11:27:46 Mac Opener v3.0 Registration 57%
2011-09-08 11:32:59 mIRC v4.5+ Registration 60%
2011-09-08 11:32:59 mIRC v4.52 Registration 60%
2011-09-08 12:37:02 Quant v2.0 Registration 0%
2011-09-08 12:41:14 Registration Suite 1.0 60%
2011-09-08 12:41:14 Registration Suite v1.0 60%
2011-09-08 12:41:14 Registration Wizard Pro 5.01 46%
2011-09-08 12:41:14 Registration Wizard Pro v5.01 60%
2011-09-08 13:18:59 WinHacker 95 v2.02 Registration 57%
2012-12-13 05:12:00 Registration Key : 526EFEF086E09600449E667EA2DAE8E2E6D642BC 83%
2009-10-22 23:50:35 Win Hacker 2.0 60%
2011-09-08 13:16:03 Web Hacker 2.5 95%
2011-09-08 13:16:03 Web Hacker v2.5 84%
2011-09-08 13:17:23 Win Hacker v2.01 80%
2009-10-22 23:27:21 Ardamax Keylogger 2.9 Registration 56%
2009-10-22 23:49:57 SoudForge ALL (No Registration Requiered) 0%
2009-10-22 23:50:26 Valve's Registration Armor Key-Gen 60%
2011-09-08 10:21:42 Browserola v1.01 Temp. Registration 0%
2011-09-08 10:56:11 FontLook v3.1 Registration Code 86%
2011-09-08 11:31:51 Microsoft Registration HackerMSREGHACK 0%
2011-09-08 11:32:07 Microstation v5.xx.xx & 95 FULL REGISTRATION 48%
2011-09-08 11:42:43 Nic O'Matic 1.6 Registration Code 50%
2011-09-08 11:42:43 Nic O'Matic v1.6 Registration Code 55%
2011-09-08 12:34:57 PolyTrans V1.2E Registration Activator CD-Key 62%
2011-09-08 12:34:57 PolyView v2.9b16 Registration 0%
2011-09-08 12:54:09 Time Registration (German) 1.10 0%
2011-09-08 12:59:30 Super Collapse Registration 100%
2011-09-08 13:23:15 Yipe! II for Windows Registration #154 0%
2012-12-13 08:49:53 Softwarenetz Time Registration v1.10 0%
2012-12-13 08:49:56 Softwarenetz Time Registration v1.14 0%
2012-12-13 15:34:10 Valve's Registration Armor Key-Gen 0%
2009-10-22 23:27:15 AgD Resource Hacker 1.0 76%
2009-10-22 23:46:27 DJ Hacker Compiler 2.01 0%
2009-10-22 23:48:06 Hacker Evolution 37%
2009-10-22 23:48:06 Hacker Smacker 1.1 20%
2009-10-22 23:48:50 Mix - FX ( Por Hacker DJ Marshal ) 0%
2009-10-22 23:50:00 Street Hacker 77%
2011-09-08 10:02:05 AgD Resource Hacker 1 0%
2011-09-08 10:02:05 AgD Resource Hacker v1.0 0%
2011-09-08 10:07:08 Anti-Hacker 37%
2011-09-08 11:05:39 Hacker Smacker 1.1 0%
2011-09-08 11:05:39 Hacker Smacker v1.1 20%
2011-09-08 13:17:23 Win hacker 95 ver.2.0 beta4 0%
2009-10-22 23:48:17 Internet Download Manager Registration 50%
2011-09-08 10:25:56 Cheyenne Bitware V4.0 Registration Number 60%
2011-09-08 11:31:51 Microsoft Visual Basic 5 registration cd key 72%
2011-09-08 12:54:14 TimeSlips 10.5 enterprise - with registration code! 0%
2012-12-12 08:07:32 Download avast 5.0.667 Antivirus registration 0%
2012-12-13 05:12:00 Registration Code For PDFZilla Giveaway 0%
2012-12-13 05:12:00 Registration key for x-3gp-video-converter-38540 54%
2012-12-13 13:12:40 Total Image Converter Registration Key 57%
2009-10-22 23:45:54 Coni's Passwort Hacker 79%
2009-10-22 23:45:56 Corel 10 ( Por Hacker DJ Marshal ) 0%
2009-10-22 23:48:29 Kasperski Anti-Hacker 0%
2009-10-22 23:48:52 Msn Hacker GiveMe Thevpass 31%
2009-10-22 23:50:00 Steganos Hacker Tools 0%
2009-10-22 23:50:00 Steganos Hacker Tools 7 20%
2009-10-22 23:50:13 Turbo Hacker 2.0 Beta 0%
2009-10-22 23:50:27 Visual Fox Pro 6.0 ( Por Hacker DJ Marshal ) 0%
2011-09-08 10:28:37 Coni's Passwort Hacker 0%
2011-09-08 11:05:39 Hacker Defense Suite Pro 4.16 96%
2011-09-08 11:05:39 Hacker Steganos Tools 20%
2011-09-08 12:56:12 Turbo Hacker v2.0 Beta 0%
2011-09-08 12:58:40 Steganos Hacker Tools 0%
2011-09-08 13:12:43 Visual Fox Pro v6.0 ( Por Hacker dJ Marshal ) 55%
2011-09-08 13:17:23 Win Hacker v2.0 beta4 Win95 0%
2012-12-12 13:45:09 Hacker Evolution Untold 66%
2011-09-08 11:30:16 MediaBlaze 98 v1.01 Win95/NT User: delphic Registration 0%
2012-12-13 05:12:00 Registration code:-826510-16101-266644 55%
2009-10-22 23:27:20 Anti-Hacker Expert 2003 1.2 79%
2009-10-22 23:27:20 Anti-Hacker Expert 2003 1.6 27%
2009-10-22 23:49:19 Panda Platinium ( Por Hacker DJ Marshal ) 0%
2011-09-08 10:07:07 Anti Hacker Expert 2003.1.2 0%
2011-09-08 10:07:08 Anti-Hacker Expert 2003 1.2 0%
2011-09-08 10:07:08 Anti-Hacker Expert 2003 1.6 0%
2011-09-08 10:07:08 Anti-Hacker Expert 2003 v1.2 0%
2011-09-08 10:07:08 Anti-Hacker Expert 2003 v1.6 0%
2011-09-08 11:05:39 Hacker Defense Suite Professional v4.16 0%
2011-09-08 12:38:46 ProtectX Hacker Defence Suite 4.16 0%
2011-09-08 12:38:46 ProtectX Hacker Defence Suite v4.16 0%
2012-12-13 01:18:20 Perfect Disk 12.5 Pro- BABA-The Hacker 100%
2009-10-22 23:49:02 Norton Internet Security 2005 Registration Guide 0%
2011-09-08 09:58:40 Acoustica Mixcraft v1.10 Build 15 Registration Info by MaBi 60%
2009-10-22 23:27:20 Anti Hacker & Trojan Expert 2003.1.6 0%
2009-10-22 23:27:20 Anti Hacker And Trojan Expert 2003.1.4 0%
2009-10-22 23:27:20 Anti-Hacker & Trojan Expert 2003 1.6 0%
2009-10-22 23:49:19 Panda Titanium 2004 ( Por Hacker DJ Marshal ) 0%
2011-09-08 10:07:07 Anti Hacker & Trojan Expert 2003.1.6 0%
2011-09-08 10:07:07 Anti Hacker and Trojan Expert 2003.1.4 0%
2011-09-08 10:07:07 Anti Hacker and Trojan Expert v2003.1.6 0%
2011-09-08 10:07:08 Anti-Hacker & Trojan Expert 2003 1.6 0%
2012-12-12 19:40:26 Microsoft Visual Basic 2008 Express Edition Registration key 20%
2009-10-22 23:50:00 Steganos Hacker Tools German Edition Darkman 78%
2011-09-08 10:07:07 Anti Hacker & Trojan Expert 2003.1.6 by REVENGE 0%
2011-09-08 10:07:07 Anti Hacker and Trojan Expert 2003.1.4 by ENFUSiA 0%
2011-09-08 10:07:08 Anti-Hacker & Trojan Expert 2003 v1.6 by LasH 0%
2011-09-08 10:53:54 Farstone Protect Restore Suite Hacker Smacker 1 70%
2009-10-22 23:50:58 ZoneAlarm 7.1 Vista ICE AGE, Brasil Hacker Team ALFA18 Orkut 0%